contact:dominique.lefevre@mio.osupytheas.fr, maurice.libes@osupytheas.fr, didier.mallarino@osupytheas.fr
Project:EMSO http://www.emso-fr.org/EMSO-France
Depth: 2436.0 m
Title:EMSO Ligure Ouest : Data MII capteur AQUADOPP
Date,Latitude,Longitude,X_East,Y_North,Z_Up,Amplitude_X,Amplitude_Y,Amplitude_Z,Batterie,SoundSpeed,Heading,Pitch,Roll,Pressure,TIS,Speed,Direction
, degrees North, degrees East, m.s-1, m.s-1,m.s-1, 1, 1, 1, Volt, m.s-1, degree, degree, degree, dbar, degree_C, m.s-1, degree
2019-05-30T00:09:04,42.805,6.029,-0.018,0.005,-0.012,102.0,108.0,101.0,13.4,1505.2,326.5,-0.8,1.9,2470.102,13.29,0.018,285.5
2019-05-30T00:12:05,42.805,6.029,-0.026,0.015,-0.029,104.0,106.0,100.0,13.4,1505.3,326.5,-0.8,1.9,2470.08,13.31,0.03,300.0
2019-05-30T00:15:06,42.805,6.029,-0.021,0.022,0.011,103.0,107.0,98.0,13.4,1505.3,324.6,-0.8,1.8,2470.093,13.31,0.03,316.3
2019-05-30T00:18:07,42.805,6.029,-0.019,0.023,-0.014,103.0,106.0,99.0,13.4,1505.3,324.6,-0.8,1.8,2470.074,13.32,0.029,320.4
2019-05-30T00:21:08,42.805,6.029,-0.038,0.026,-0.018,102.0,107.0,99.0,13.4,1505.3,324.7,-0.7,1.9,2470.124,13.32,0.046,304.4
2019-05-30T00:24:09,42.805,6.029,-0.025,0.026,-0.021,106.0,107.0,99.0,13.4,1505.3,328.0,-0.8,1.9,2470.061,13.33,0.036,316.1
2019-05-30T00:27:10,42.805,6.029,-0.01,-0.005,-0.036,103.0,106.0,99.0,13.4,1505.3,326.3,-0.8,1.9,2470.116,13.33,0.011,243.4
2019-05-30T00:30:11,42.805,6.029,-0.014,0.015,-0.034,102.0,106.0,100.0,13.4,1505.3,327.2,-0.7,1.9,2470.093,13.33,0.02,317.0
2019-05-30T00:33:12,42.805,6.029,-0.035,0.035,-0.026,102.0,109.0,99.0,13.3,1505.3,326.3,-0.8,1.9,2470.118,13.33,0.049,315.0
2019-05-30T00:36:13,42.805,6.029,-0.014,0.022,-0.061,104.0,107.0,99.0,13.4,1505.3,328.2,-0.7,1.8,2470.098,13.33,0.026,327.5
2019-05-30T00:39:14,42.805,6.029,-0.024,0.033,-0.03,104.0,107.0,99.0,13.4,1505.3,326.8,-0.7,1.9,2470.047,13.33,0.04,324.0
2019-05-30T00:42:15,42.805,6.029,-0.007,-0.003,-0.03,104.0,105.0,100.0,13.4,1505.3,327.8,-0.8,1.9,2470.06,13.33,0.007,246.8
2019-05-30T00:45:16,42.805,6.029,-0.012,0.003,0.006,104.0,106.0,99.0,13.4,1505.3,326.7,-0.7,1.8,2470.007,13.33,0.012,284.0
2019-05-30T00:48:17,42.805,6.029,-0.013,0.015,-0.019,104.0,105.0,100.0,13.3,1505.3,325.7,-0.8,1.8,2470.082,13.33,0.019,319.1
2019-05-30T00:51:18,42.805,6.029,-0.048,0.011,-0.024,104.0,106.0,100.0,13.3,1505.3,325.9,-0.7,1.8,2469.976,13.33,0.049,282.9
2019-05-30T00:54:19,42.805,6.029,-0.007,0.023,-0.026,105.0,107.0,100.0,13.4,1505.3,323.9,-0.7,1.9,2470.063,13.33,0.024,343.1
2019-05-30T00:57:20,42.805,6.029,-0.025,0.009,-0.035,103.0,107.0,102.0,13.3,1505.3,324.2,-0.8,1.9,2470.087,13.33,0.026,289.8
2019-05-30T01:00:21,42.805,6.029,-0.02,0.024,-0.021,104.0,107.0,100.0,13.4,1505.3,323.6,-0.8,1.8,2470.128,13.33,0.031,320.2
2019-05-30T01:03:22,42.805,6.029,-0.009,0.02,-0.028,104.0,109.0,100.0,13.4,1505.3,324.0,-0.7,1.9,2470.111,13.33,0.021,335.8
2019-05-30T01:06:23,42.805,6.029,-0.028,0.004,-0.008,104.0,108.0,101.0,13.4,1505.3,327.1,-0.8,1.8,2470.04,13.33,0.028,278.1
2019-05-30T01:09:24,42.805,6.029,-0.017,0.019,0.004,104.0,107.0,100.0,13.4,1505.3,325.8,-0.8,1.9,2470.091,13.33,0.025,318.2
2019-05-30T01:12:25,42.805,6.029,-0.025,0.016,-0.021,104.0,107.0,99.0,13.4,1505.3,325.3,-0.8,1.9,2470.082,13.33,0.029,302.6
2019-05-30T01:15:26,42.805,6.029,-0.027,0.017,-0.045,104.0,106.0,101.0,13.4,1505.3,326.3,-0.7,1.9,2470.109,13.33,0.031,302.2
2019-05-30T01:18:27,42.805,6.029,-0.03,0.006,-0.004,104.0,107.0,102.0,13.4,1505.3,325.7,-0.7,1.9,2470.073,13.33,0.03,281.3
2019-05-30T01:21:28,42.805,6.029,-0.038,-0.004,-0.056,104.0,107.0,100.0,13.4,1505.3,326.0,-0.7,1.8,2470.112,13.33,0.038,264.0
2019-05-30T01:24:29,42.805,6.029,-0.041,0.0,-0.028,106.0,107.0,100.0,13.4,1505.3,323.5,-0.7,1.8,2470.102,13.33,0.041,270.0
2019-05-30T01:27:30,42.805,6.029,-0.012,0.008,-0.031,105.0,107.0,100.0,13.4,1505.3,325.7,-0.8,1.9,2470.072,13.33,0.014,303.7
2019-05-30T01:30:31,42.805,6.029,-0.024,0.016,-0.016,102.0,108.0,102.0,13.4,1505.3,323.6,-0.7,1.8,2470.161,13.33,0.028,303.7
2019-05-30T01:33:32,42.805,6.029,-0.045,0.005,-0.046,103.0,107.0,100.0,13.4,1505.3,326.4,-0.7,1.9,2470.092,13.33,0.045,276.3
2019-05-30T01:36:33,42.805,6.029,-0.029,0.005,-0.024,105.0,106.0,100.0,13.3,1505.3,324.9,-0.8,1.9,2470.1,13.33,0.029,279.8
2019-05-30T01:39:34,42.805,6.029,-0.033,0.016,-0.015,103.0,108.0,100.0,13.3,1505.3,325.6,-0.8,1.8,2470.116,13.33,0.036,295.9
2019-05-30T01:42:35,42.805,6.029,-0.011,0.007,-0.013,104.0,108.0,99.0,13.4,1505.3,327.3,-0.8,1.8,2470.062,13.33,0.013,302.5
2019-05-30T01:45:36,42.805,6.029,-0.044,0.017,-0.003,104.0,106.0,102.0,13.3,1505.3,324.8,-0.7,1.8,2470.067,13.33,0.047,291.1
2019-05-30T01:48:37,42.805,6.029,-0.024,0.027,-0.038,103.0,107.0,100.0,13.3,1505.3,324.8,-0.8,1.9,2470.035,13.33,0.036,318.4
2019-05-30T01:51:38,42.805,6.029,0.0,0.012,-0.032,104.0,105.0,100.0,13.3,1505.3,328.1,-0.7,1.8,2470.044,13.33,0.012,0.0
2019-05-30T01:54:39,42.805,6.029,-0.039,0.02,-0.037,104.0,106.0,99.0,13.3,1505.3,325.7,-0.7,1.9,2470.072,13.33,0.043,297.1
2019-05-30T01:57:40,42.805,6.029,-0.033,0.032,-0.024,103.0,107.0,99.0,13.4,1505.3,324.4,-0.8,1.8,2470.093,13.33,0.045,314.1
2019-05-30T02:00:41,42.805,6.029,-0.021,0.015,-0.019,103.0,107.0,99.0,13.4,1505.3,325.3,-0.7,1.9,2470.077,13.33,0.025,305.5
2019-05-30T02:03:42,42.805,6.029,-0.007,0.022,-0.03,104.0,105.0,100.0,13.3,1505.3,325.9,-0.8,1.9,2470.117,13.33,0.023,342.4
2019-05-30T02:06:43,42.805,6.029,-0.036,0.024,-0.032,104.0,106.0,99.0,13.4,1505.3,323.3,-0.7,1.9,2470.088,13.33,0.043,303.7
2019-05-30T02:09:44,42.805,6.029,-0.035,0.017,-0.013,103.0,107.0,101.0,13.4,1505.3,326.2,-0.7,1.9,2470.096,13.33,0.038,295.9
2019-05-30T02:12:45,42.805,6.029,-0.044,0.009,-0.038,104.0,106.0,101.0,13.4,1505.3,326.0,-0.8,1.9,2470.083,13.33,0.044,281.6
2019-05-30T02:15:46,42.805,6.029,-0.037,0.015,-0.014,105.0,107.0,101.0,13.4,1505.3,326.6,-0.8,1.9,2470.103,13.33,0.039,292.1
2019-05-30T02:18:47,42.805,6.029,-0.033,0.015,-0.035,104.0,109.0,101.0,13.4,1505.3,324.7,-0.7,1.8,2470.076,13.33,0.036,294.4
2019-05-30T02:21:48,42.805,6.029,-0.035,0.002,-0.056,105.0,108.0,100.0,13.4,1505.3,324.0,-0.7,1.9,2470.129,13.33,0.035,273.3
2019-05-30T02:24:49,42.805,6.029,-0.016,0.015,-0.024,104.0,107.0,101.0,13.4,1505.3,324.9,-0.8,1.8,2470.093,13.33,0.021,313.1
2019-05-30T02:27:50,42.805,6.029,-0.051,0.007,-0.017,103.0,108.0,104.0,13.4,1505.3,326.8,-0.8,1.8,2470.124,13.33,0.051,277.8
2019-05-30T02:30:51,42.805,6.029,-0.028,0.009,0.009,105.0,109.0,101.0,13.4,1505.3,325.7,-0.8,1.8,2470.12,13.33,0.029,287.8
2019-05-30T02:33:52,42.805,6.029,0.0,0.034,-0.012,105.0,107.0,99.0,13.4,1505.3,324.5,-0.8,1.9,2470.157,13.33,0.034,0.0
2019-05-30T02:36:53,42.805,6.029,-0.023,0.021,-0.043,104.0,108.0,100.0,13.3,1505.3,326.4,-0.8,1.9,2470.131,13.33,0.031,312.4
2019-05-30T02:39:54,42.805,6.029,-0.033,0.002,-0.047,104.0,108.0,102.0,13.4,1505.3,325.2,-0.8,1.8,2470.174,13.33,0.033,273.5
2019-05-30T02:42:55,42.805,6.029,-0.023,0.011,-0.028,105.0,107.0,99.0,13.4,1505.3,324.7,-0.8,1.9,2470.127,13.33,0.025,295.6
2019-05-30T02:45:56,42.805,6.029,-0.022,0.01,-0.012,103.0,107.0,100.0,13.4,1505.3,323.0,-0.7,1.8,2470.122,13.33,0.024,294.4
2019-05-30T02:48:57,42.805,6.029,-0.031,0.025,-0.005,103.0,107.0,101.0,13.3,1505.3,326.1,-0.7,1.9,2470.103,13.33,0.039,308.9
2019-05-30T02:51:58,42.805,6.029,-0.039,0.02,-0.017,104.0,107.0,100.0,13.4,1505.3,326.8,-0.7,1.9,2470.066,13.33,0.043,297.1
2019-05-30T02:54:59,42.805,6.029,-0.015,0.02,-0.03,103.0,106.0,99.0,13.4,1505.3,326.5,-0.7,1.8,2470.143,13.33,0.025,323.1
2019-05-30T02:58:00,42.805,6.029,-0.036,0.009,-0.023,103.0,106.0,100.0,13.3,1505.3,324.4,-0.7,1.8,2470.125,13.33,0.037,284.0
2019-05-30T03:01:01,42.805,6.029,-0.018,0.031,-0.015,102.0,107.0,98.0,13.4,1505.3,322.8,-0.7,1.8,2470.147,13.33,0.035,329.9
2019-05-30T03:04:02,42.805,6.029,-0.012,0.027,0.005,102.0,107.0,100.0,13.4,1505.3,328.0,-0.8,1.9,2470.121,13.33,0.029,336.0
2019-05-30T03:07:03,42.805,6.029,-0.018,0.018,-0.019,102.0,106.0,99.0,13.3,1505.3,326.0,-0.8,1.9,2470.15,13.33,0.025,315.0
2019-05-30T03:10:04,42.805,6.029,-0.031,0.016,-0.014,101.0,104.0,99.0,13.4,1505.3,326.5,-0.7,1.9,2470.126,13.33,0.034,297.3
2019-05-30T03:13:05,42.805,6.029,-0.049,0.033,-0.032,102.0,105.0,99.0,13.4,1505.3,325.0,-0.7,1.9,2470.123,13.33,0.059,304.0
2019-05-30T03:16:06,42.805,6.029,-0.012,0.027,-0.019,101.0,107.0,98.0,13.3,1505.3,323.0,-0.8,1.9,2470.165,13.33,0.029,336.0
2019-05-30T03:19:07,42.805,6.029,-0.028,0.029,-0.072,101.0,106.0,100.0,13.4,1505.3,324.6,-0.8,1.9,2470.143,13.33,0.04,316.0
2019-05-30T03:22:08,42.805,6.029,-0.024,0.026,-0.038,102.0,107.0,97.0,13.3,1505.3,323.4,-0.8,1.9,2470.127,13.33,0.035,317.3
2019-05-30T03:25:09,42.805,6.029,-0.019,0.053,-0.027,101.0,107.0,97.0,13.4,1505.3,327.9,-0.7,1.9,2470.173,13.33,0.056,340.3
2019-05-30T03:28:10,42.805,6.029,-0.027,0.029,-0.039,102.0,107.0,99.0,13.3,1505.3,326.5,-0.7,1.9,2470.118,13.33,0.039,317.0
2019-05-30T03:31:11,42.805,6.029,-0.025,0.013,-0.027,102.0,107.0,98.0,13.4,1505.3,324.5,-0.8,1.8,2470.14,13.33,0.028,297.5
2019-05-30T03:34:12,42.805,6.029,-0.026,0.014,-0.026,102.0,107.0,98.0,13.4,1505.3,324.8,-0.7,1.9,2470.154,13.33,0.029,298.3
2019-05-30T03:37:13,42.805,6.029,-0.028,0.03,-0.034,101.0,106.0,99.0,13.4,1505.3,325.0,-0.7,1.9,2470.137,13.33,0.041,317.0
2019-05-30T03:40:14,42.805,6.029,-0.044,0.029,-0.051,100.0,105.0,99.0,13.4,1505.3,324.7,-0.8,1.8,2470.11,13.33,0.052,303.4
2019-05-30T03:43:15,42.805,6.029,0.008,0.013,0.021,100.0,107.0,98.0,13.4,1505.3,325.5,-0.7,1.8,2470.136,13.33,0.015,31.6
2019-05-30T03:46:16,42.805,6.029,0.005,0.042,-0.018,102.0,106.0,98.0,13.4,1505.3,326.3,-0.7,1.8,2470.108,13.33,0.042,6.8
2019-05-30T03:49:17,42.805,6.029,-0.042,0.028,-0.04,101.0,108.0,98.0,13.4,1505.3,324.9,-0.7,1.8,2470.137,13.33,0.05,303.7
2019-05-30T03:52:18,42.805,6.029,-0.022,0.028,-0.023,101.0,106.0,97.0,13.3,1505.3,323.7,-0.8,1.8,2470.151,13.33,0.035,321.8
2019-05-30T03:55:19,42.805,6.029,-0.014,0.032,-0.049,101.0,108.0,98.0,13.4,1505.3,323.6,-0.7,1.9,2470.119,13.33,0.034,336.4
2019-05-30T03:58:20,42.805,6.029,-0.003,0.034,-0.014,100.0,107.0,98.0,13.4,1505.3,327.5,-0.8,1.9,2470.155,13.33,0.034,355.0
2019-05-30T04:01:21,42.805,6.029,-0.02,0.028,-0.035,102.0,107.0,97.0,13.4,1505.3,324.9,-0.8,1.9,2470.143,13.33,0.034,324.5
2019-05-30T04:04:22,42.805,6.029,-0.007,0.049,0.009,104.0,106.0,97.0,13.4,1505.3,322.5,-0.7,1.9,2470.215,13.33,0.049,351.9
2019-05-30T04:07:23,42.805,6.029,-0.028,0.009,-0.035,100.0,106.0,100.0,13.3,1505.3,328.1,-0.8,1.8,2470.142,13.33,0.029,287.8
2019-05-30T04:10:24,42.805,6.029,0.008,0.008,0.012,102.0,107.0,99.0,13.4,1505.3,325.8,-0.8,1.8,2470.16,13.33,0.011,45.0
2019-05-30T04:13:25,42.805,6.029,-0.024,0.026,-0.038,103.0,108.0,99.0,13.4,1505.3,323.7,-0.8,1.9,2470.152,13.33,0.035,317.3
2019-05-30T04:16:26,42.805,6.029,-0.021,0.017,-0.01,101.0,108.0,99.0,13.4,1505.3,327.3,-0.8,1.8,2470.14,13.33,0.027,309.0
2019-05-30T04:19:27,42.805,6.029,0.0,0.039,0.008,101.0,105.0,100.0,13.4,1505.3,326.9,-0.8,1.9,2470.127,13.33,0.039,0.0
2019-05-30T04:22:28,42.805,6.029,-0.028,0.022,-0.04,100.0,108.0,98.0,13.4,1505.3,323.4,-0.8,1.9,2470.161,13.33,0.035,308.2
2019-05-30T04:25:29,42.805,6.029,-0.044,0.04,-0.038,101.0,105.0,98.0,13.4,1505.3,324.1,-0.8,1.8,2470.187,13.33,0.059,312.3
2019-05-30T04:28:30,42.805,6.029,-0.036,0.023,-0.02,102.0,107.0,99.0,13.4,1505.3,323.4,-0.7,1.9,2470.15,13.33,0.042,302.6
2019-05-30T04:31:31,42.805,6.029,-0.044,0.041,-0.042,101.0,108.0,98.0,13.4,1505.3,325.9,-0.8,1.9,2470.158,13.33,0.06,313.0
2019-05-30T04:34:32,42.805,6.029,-0.023,0.05,-0.026,103.0,106.0,98.0,13.4,1505.3,323.6,-0.7,1.9,2470.12,13.33,0.055,335.3
2019-05-30T04:37:33,42.805,6.029,-0.026,0.014,-0.022,101.0,107.0,98.0,13.3,1505.3,324.9,-0.7,1.8,2470.152,13.33,0.029,298.3
2019-05-30T04:40:34,42.805,6.029,-0.016,0.031,0.001,103.0,106.0,98.0,13.4,1505.3,323.0,-0.8,1.8,2470.146,13.33,0.034,332.7
2019-05-30T04:43:35,42.805,6.029,-0.022,0.029,-0.026,101.0,107.0,98.0,13.3,1505.3,326.8,-0.8,1.9,2470.165,13.33,0.036,322.8
2019-05-30T04:46:36,42.805,6.029,-0.02,0.04,-0.033,102.0,108.0,99.0,13.3,1505.3,326.6,-0.8,1.9,2470.118,13.33,0.044,333.4
2019-05-30T04:49:37,42.805,6.029,-0.033,0.045,-0.04,101.0,110.0,98.0,13.4,1505.3,327.5,-0.8,1.9,2470.209,13.33,0.055,323.7
2019-05-30T04:52:38,42.805,6.029,-0.009,0.043,0.017,103.0,107.0,100.0,13.4,1505.3,326.6,-0.8,1.9,2470.12,13.33,0.043,348.2
2019-05-30T04:55:39,42.805,6.029,-0.021,0.044,-0.001,104.0,108.0,99.0,13.4,1505.3,326.9,-0.8,1.9,2470.104,13.33,0.048,334.5
2019-05-30T04:58:40,42.805,6.029,-0.015,0.037,-0.004,102.0,105.0,99.0,13.3,1505.3,324.4,-0.8,1.9,2470.13,13.33,0.039,337.9
2019-05-30T05:01:41,42.805,6.029,-0.012,0.036,-0.01,102.0,107.0,99.0,13.4,1505.3,323.8,-0.7,1.9,2470.115,13.33,0.037,341.6
2019-05-30T05:04:42,42.805,6.029,-0.041,0.021,-0.071,102.0,107.0,99.0,13.3,1505.3,324.7,-0.7,1.8,2470.128,13.33,0.046,297.1
2019-05-30T05:07:43,42.805,6.029,-0.047,0.021,-0.059,107.0,108.0,100.0,13.4,1505.3,326.5,-0.8,1.9,2470.097,13.33,0.051,294.1
2019-05-30T05:10:44,42.805,6.029,-0.038,0.047,-0.045,102.0,108.0,98.0,13.4,1505.3,325.2,-0.7,1.8,2470.118,13.33,0.06,321.0
2019-05-30T05:13:45,42.805,6.029,-0.014,0.024,-0.003,102.0,107.0,98.0,13.4,1505.3,326.7,-0.8,1.9,2470.166,13.33,0.027,329.7
2019-05-30T05:16:46,42.805,6.029,-0.004,0.021,-0.009,102.0,106.0,98.0,13.3,1505.3,327.2,-0.7,1.9,2470.142,13.33,0.021,349.2
2019-05-30T05:19:47,42.805,6.029,-0.008,0.035,-0.016,101.0,107.0,98.0,13.4,1505.3,326.1,-0.8,1.9,2470.121,13.33,0.035,347.1
2019-05-30T05:22:48,42.805,6.029,-0.036,0.045,-0.012,102.0,108.0,97.0,13.3,1505.3,325.9,-0.7,1.8,2470.162,13.33,0.057,321.3
2019-05-30T05:25:49,42.805,6.029,-0.045,0.018,-0.027,100.0,109.0,99.0,13.4,1505.3,323.8,-0.8,1.8,2470.177,13.33,0.048,291.8
2019-05-30T05:28:50,42.805,6.029,-0.04,0.048,0.015,102.0,107.0,99.0,13.3,1505.3,325.3,-0.8,1.8,2470.133,13.33,0.062,320.2
2019-05-30T05:31:51,42.805,6.029,-0.049,0.011,-0.025,101.0,108.0,99.0,13.4,1505.3,323.3,-0.8,1.8,2470.136,13.33,0.05,282.7
2019-05-30T05:34:52,42.805,6.029,-0.035,0.028,-0.005,103.0,108.0,97.0,13.4,1505.3,324.8,-0.7,1.9,2470.17,13.33,0.044,308.7
2019-05-30T05:37:53,42.805,6.029,-0.021,0.026,-0.005,101.0,109.0,99.0,13.3,1505.3,325.9,-0.7,1.9,2470.189,13.33,0.033,321.1
2019-05-30T05:40:54,42.805,6.029,-0.011,0.023,-0.005,100.0,108.0,99.0,13.4,1505.3,324.3,-0.8,1.8,2470.103,13.33,0.025,334.4
2019-05-30T05:43:55,42.805,6.029,-0.04,0.032,-0.025,103.0,106.0,99.0,13.3,1505.3,327.6,-0.7,1.8,2470.088,13.33,0.051,308.7
2019-05-30T05:46:56,42.805,6.029,-0.049,0.033,-0.052,102.0,107.0,99.0,13.3,1505.3,326.4,-0.8,1.9,2470.117,13.33,0.059,304.0
2019-05-30T05:49:57,42.805,6.029,-0.024,0.025,-0.029,100.0,108.0,98.0,13.3,1505.3,326.9,-0.7,1.8,2470.127,13.33,0.034,316.2
2019-05-30T05:52:58,42.805,6.029,-0.036,0.035,-0.038,101.0,108.0,98.0,13.4,1505.3,326.0,-0.8,1.9,2470.142,13.33,0.05,314.2
2019-05-30T05:55:59,42.805,6.029,-0.061,0.026,-0.043,100.0,108.0,100.0,13.3,1505.3,327.8,-0.8,1.9,2470.194,13.33,0.066,293.1
2019-05-30T05:59:00,42.805,6.029,-0.035,0.038,-0.044,104.0,108.0,100.0,13.4,1505.3,326.0,-0.7,1.8,2470.071,13.33,0.051,317.4
2019-05-30T06:02:01,42.805,6.029,-0.035,0.023,-0.011,104.0,107.0,100.0,13.4,1505.3,327.1,-0.7,1.9,2470.1,13.33,0.041,303.3
2019-05-30T06:05:02,42.805,6.029,-0.024,0.02,-0.002,102.0,109.0,99.0,13.4,1505.3,325.7,-0.7,1.9,2470.108,13.33,0.031,309.8
2019-05-30T06:08:03,42.805,6.029,-0.028,0.035,0.0,103.0,108.0,100.0,13.4,1505.3,326.8,-0.7,1.9,2470.125,13.33,0.044,321.3
2019-05-30T06:11:04,42.805,6.029,-0.03,0.037,-0.006,102.0,108.0,100.0,13.4,1505.3,326.4,-0.8,1.8,2470.109,13.33,0.047,321.0
2019-05-30T06:14:05,42.805,6.029,-0.045,0.029,-0.031,102.0,109.0,98.0,13.4,1505.3,327.3,-0.7,1.9,2470.154,13.33,0.053,302.8
2019-05-30T06:17:06,42.805,6.029,-0.035,0.046,0.0,103.0,108.0,100.0,13.4,1505.3,327.7,-0.7,1.8,2470.101,13.33,0.057,322.7
2019-05-30T06:20:07,42.805,6.029,-0.03,0.034,-0.045,103.0,108.0,99.0,13.4,1505.3,326.5,-0.8,1.9,2470.128,13.33,0.045,318.6
2019-05-30T06:23:08,42.805,6.029,-0.018,0.037,-0.025,102.0,107.0,98.0,13.4,1505.3,324.3,-0.8,1.8,2470.158,13.33,0.041,334.1
2019-05-30T06:26:09,42.805,6.029,-0.032,0.03,-0.077,103.0,107.0,98.0,13.4,1505.3,322.6,-0.7,1.9,2470.123,13.33,0.043,313.1
2019-05-30T06:29:10,42.805,6.029,-0.041,0.033,-0.066,103.0,108.0,98.0,13.4,1505.3,324.9,-0.8,1.9,2470.126,13.33,0.052,308.8
2019-05-30T06:32:11,42.805,6.029,-0.051,0.022,-0.008,102.0,108.0,100.0,13.4,1505.3,326.8,-0.8,1.9,2470.122,13.33,0.055,293.3
2019-05-30T06:35:12,42.805,6.029,-0.026,0.021,-0.022,103.0,108.0,98.0,13.3,1505.3,325.6,-0.8,1.9,2470.125,13.33,0.033,308.9
2019-05-30T06:38:13,42.805,6.029,-0.046,0.01,-0.023,103.0,107.0,99.0,13.3,1505.3,326.9,-0.7,1.9,2470.122,13.33,0.047,282.3
2019-05-30T06:41:14,42.805,6.029,-0.054,0.013,-0.041,102.0,108.0,99.0,13.3,1505.3,323.7,-0.8,1.8,2470.122,13.33,0.055,283.5
2019-05-30T06:44:15,42.805,6.029,-0.023,0.048,-0.038,102.0,108.0,99.0,13.4,1505.3,326.8,-0.7,1.9,2470.105,13.33,0.053,334.4
2019-05-30T06:47:16,42.805,6.029,-0.047,0.029,-0.035,102.0,108.0,98.0,13.3,1505.3,326.9,-0.8,1.8,2470.131,13.33,0.055,301.7
2019-05-30T06:50:17,42.805,6.029,-0.041,0.033,-0.026,102.0,107.0,101.0,13.4,1505.3,327.9,-0.7,1.8,2470.084,13.33,0.052,308.8
2019-05-30T06:53:18,42.805,6.029,-0.036,0.032,-0.02,103.0,108.0,99.0,13.3,1505.3,325.4,-0.7,1.9,2470.11,13.33,0.048,311.6
2019-05-30T06:56:19,42.805,6.029,-0.017,0.011,-0.031,103.0,108.0,99.0,13.4,1505.3,328.6,-0.7,1.9,2470.114,13.33,0.02,302.9
2019-05-30T06:59:20,42.805,6.029,-0.036,0.03,-0.02,101.0,108.0,99.0,13.4,1505.3,325.9,-0.7,1.8,2470.101,13.33,0.046,309.8
2019-05-30T07:02:21,42.805,6.029,-0.028,0.031,-0.026,102.0,109.0,100.0,13.4,1505.3,328.1,-0.7,1.9,2470.11,13.33,0.041,317.9
2019-05-30T07:05:22,42.805,6.029,-0.048,0.014,-0.028,101.0,109.0,98.0,13.4,1505.3,324.5,-0.7,1.8,2470.13,13.33,0.05,286.3
2019-05-30T07:08:23,42.805,6.029,-0.043,0.029,-0.011,102.0,108.0,99.0,13.4,1505.3,323.4,-0.7,1.8,2470.04,13.33,0.051,304.0
2019-05-30T07:11:24,42.805,6.029,-0.003,0.028,-0.011,103.0,108.0,103.0,13.4,1505.3,324.6,-0.8,1.9,2470.082,13.33,0.028,353.9
2019-05-30T07:14:25,42.805,6.029,-0.006,0.034,-0.007,102.0,106.0,100.0,13.4,1505.3,323.7,-0.7,1.9,2470.042,13.33,0.034,350.0
2019-05-30T07:17:26,42.805,6.029,-0.033,0.04,-0.016,102.0,108.0,99.0,13.4,1505.3,326.8,-0.7,1.8,2470.059,13.33,0.051,320.5
2019-05-30T07:20:27,42.805,6.029,-0.035,0.038,-0.009,101.0,107.0,101.0,13.3,1505.3,324.2,-0.7,1.8,2470.054,13.33,0.051,317.4
2019-05-30T07:23:28,42.805,6.029,-0.053,0.042,-0.03,102.0,108.0,98.0,13.4,1505.3,326.3,-0.7,1.8,2470.116,13.33,0.067,308.4
2019-05-30T07:26:29,42.805,6.029,-0.035,0.027,-0.05,103.0,108.0,98.0,13.4,1505.3,326.5,-0.8,1.9,2470.071,13.33,0.044,307.7
2019-05-30T07:29:30,42.805,6.029,-0.025,0.032,-0.043,102.0,106.0,98.0,13.4,1505.3,328.0,-0.7,1.8,2470.058,13.33,0.04,322.0
2019-05-30T07:32:31,42.805,6.029,-0.036,0.027,-0.034,104.0,107.0,99.0,13.3,1505.3,325.0,-0.8,1.8,2470.078,13.33,0.045,306.9
2019-05-30T07:35:32,42.805,6.029,-0.004,0.011,-0.012,102.0,108.0,98.0,13.4,1505.3,323.4,-0.8,1.9,2470.102,13.33,0.011,340.0
2019-05-30T07:38:33,42.805,6.029,-0.034,0.026,-0.013,104.0,107.0,100.0,13.3,1505.3,324.7,-0.8,1.9,2470.099,13.33,0.042,307.4
2019-05-30T07:41:34,42.805,6.029,-0.051,0.04,-0.035,100.0,108.0,99.0,13.4,1505.3,327.1,-0.8,1.9,2470.095,13.33,0.064,308.1
2019-05-30T07:44:35,42.805,6.029,-0.035,0.023,-0.023,101.0,109.0,100.0,13.3,1505.3,326.0,-0.8,1.9,2470.063,13.33,0.041,303.3
2019-05-30T07:47:36,42.805,6.029,-0.059,0.041,-0.014,102.0,108.0,101.0,13.4,1505.3,327.7,-0.8,1.8,2470.051,13.33,0.071,304.8
2019-05-30T07:50:37,42.805,6.029,-0.038,0.028,0.0,101.0,106.0,99.0,13.4,1505.3,327.0,-0.7,1.9,2470.04,13.33,0.047,306.4
2019-05-30T07:53:38,42.805,6.029,-0.037,0.02,-0.053,102.0,108.0,99.0,13.4,1505.3,327.6,-0.8,1.9,2470.093,13.33,0.042,298.4
2019-05-30T07:56:39,42.805,6.029,-0.047,0.028,-0.015,102.0,108.0,98.0,13.3,1505.3,325.9,-0.7,1.9,2470.053,13.33,0.054,300.8
2019-05-30T07:59:40,42.805,6.029,-0.037,0.017,-0.025,101.0,109.0,99.0,13.4,1505.3,326.6,-0.8,1.8,2470.094,13.33,0.04,294.7
2019-05-30T08:02:41,42.805,6.029,-0.047,0.038,-0.009,103.0,111.0,102.0,13.4,1505.3,324.5,-0.8,1.9,2470.131,13.33,0.06,309.0
2019-05-30T08:05:42,42.805,6.029,-0.007,0.032,-0.006,103.0,109.0,99.0,13.3,1505.3,323.1,-0.7,1.9,2470.045,13.33,0.032,347.7
2019-05-30T08:08:43,42.805,6.029,-0.056,0.041,-0.018,102.0,108.0,99.0,13.4,1505.3,327.7,-0.8,1.8,2470.028,13.33,0.069,306.2
2019-05-30T08:11:44,42.805,6.029,-0.027,0.01,-0.026,103.0,108.0,98.0,13.4,1505.3,324.5,-0.8,1.8,2470.012,13.33,0.028,290.3
2019-05-30T08:14:45,42.805,6.029,-0.033,0.024,-0.043,103.0,109.0,99.0,13.4,1505.3,325.5,-0.8,1.9,2470.036,13.33,0.04,306.0
2019-05-30T08:17:46,42.805,6.029,-0.035,0.038,-0.041,102.0,108.0,99.0,13.3,1505.3,323.7,-0.8,1.8,2470.041,13.33,0.051,317.4
2019-05-30T08:20:47,42.805,6.029,-0.023,0.011,-0.053,103.0,108.0,99.0,13.4,1505.3,323.8,-0.8,1.8,2470.057,13.33,0.025,295.6
2019-05-30T08:23:48,42.805,6.029,-0.056,0.017,-0.034,102.0,107.0,100.0,13.3,1505.3,322.8,-0.7,1.9,2470.023,13.33,0.058,286.9
2019-05-30T08:26:49,42.805,6.029,-0.043,0.017,-0.048,102.0,108.0,100.0,13.3,1505.3,327.7,-0.8,1.8,2470.066,13.33,0.046,291.6
2019-05-30T08:29:50,42.805,6.029,-0.033,0.021,0.022,103.0,109.0,100.0,13.3,1505.3,326.7,-0.8,1.9,2470.085,13.33,0.039,302.5
2019-05-30T08:32:51,42.805,6.029,-0.018,0.009,-0.007,101.0,108.0,100.0,13.4,1505.3,323.4,-0.8,1.9,2470.032,13.33,0.02,296.6
2019-05-30T08:35:52,42.805,6.029,-0.023,0.011,-0.015,101.0,107.0,100.0,13.4,1505.3,328.2,-0.7,1.9,2470.03,13.33,0.025,295.6
2019-05-30T08:38:53,42.805,6.029,-0.041,0.02,-0.031,102.0,107.0,101.0,13.3,1505.3,325.8,-0.8,1.8,2470.027,13.33,0.045,296.0
2019-05-30T08:41:54,42.805,6.029,-0.05,0.017,-0.03,103.0,107.0,100.0,13.4,1505.3,328.0,-0.7,1.8,2470.018,13.33,0.052,288.8
2019-05-30T08:44:55,42.805,6.029,-0.036,0.051,0.012,101.0,108.0,99.0,13.3,1505.3,326.0,-0.8,1.9,2470.032,13.33,0.062,324.8
2019-05-30T08:47:56,42.805,6.029,-0.055,0.045,-0.054,102.0,109.0,99.0,13.4,1505.3,327.3,-0.8,1.9,2470.036,13.33,0.071,309.3
2019-05-30T08:50:57,42.805,6.029,-0.03,0.031,-0.006,103.0,107.0,98.0,13.4,1505.3,326.9,-0.7,1.9,2470.009,13.33,0.043,315.9
2019-05-30T08:53:58,42.805,6.029,-0.005,0.032,-0.02,104.0,108.0,100.0,13.4,1505.3,328.2,-0.7,1.8,2470.048,13.33,0.032,351.1
2019-05-30T08:56:59,42.805,6.029,-0.032,0.031,-0.018,104.0,105.0,100.0,13.3,1505.3,326.9,-0.8,1.8,2470.022,13.33,0.044,314.1
2019-05-30T09:00:00,42.805,6.029,-0.04,0.034,-0.044,102.0,108.0,99.0,13.4,1505.3,327.0,-0.8,1.8,2470.002,13.33,0.052,310.4
2019-05-30T09:03:01,42.805,6.029,-0.021,0.035,-0.011,103.0,109.0,100.0,13.3,1505.3,326.9,-0.7,1.8,2470.079,13.33,0.04,329.0
2019-05-30T09:06:02,42.805,6.029,-0.044,0.004,-0.003,104.0,108.0,99.0,13.4,1505.3,327.6,-0.7,1.9,2470.016,13.33,0.044,275.2
2019-05-30T09:09:03,42.805,6.029,-0.021,0.04,-0.024,102.0,109.0,99.0,13.4,1505.3,326.1,-0.8,1.9,2470.091,13.33,0.045,332.3
2019-05-30T09:12:04,42.805,6.029,-0.04,0.036,-0.045,103.0,108.0,98.0,13.3,1505.3,326.4,-0.7,1.8,2469.979,13.33,0.053,312.0
2019-05-30T09:15:05,42.805,6.029,-0.041,0.008,-0.011,102.0,108.0,99.0,13.4,1505.3,324.9,-0.7,1.8,2470.021,13.33,0.041,281.0
2019-05-30T09:18:06,42.805,6.029,-0.022,0.033,-0.035,103.0,106.0,100.0,13.3,1505.3,325.5,-0.7,1.8,2470.072,13.33,0.039,326.3
2019-05-30T09:21:07,42.805,6.029,-0.04,0.017,-0.034,102.0,108.0,99.0,13.4,1505.3,324.7,-0.8,1.9,2470.035,13.33,0.043,293.0
2019-05-30T09:24:08,42.805,6.029,-0.017,0.017,-0.026,104.0,109.0,99.0,13.4,1505.3,323.5,-0.8,1.9,2469.998,13.33,0.024,315.0
2019-05-30T09:27:09,42.805,6.029,-0.032,0.002,-0.027,105.0,108.0,99.0,13.4,1505.3,326.8,-0.7,1.8,2469.97,13.33,0.032,273.6
2019-05-30T09:30:10,42.805,6.029,-0.015,0.041,-0.006,104.0,108.0,100.0,13.4,1505.3,327.0,-0.8,1.8,2470.037,13.33,0.043,339.9
2019-05-30T09:33:11,42.805,6.029,-0.03,0.03,-0.027,102.0,106.0,100.0,13.4,1505.3,327.4,-0.8,1.8,2469.988,13.33,0.042,315.0
2019-05-30T09:36:12,42.805,6.029,-0.05,0.041,-0.045,102.0,110.0,99.0,13.4,1505.3,325.7,-0.8,1.8,2470.065,13.33,0.064,309.3
2019-05-30T09:39:13,42.805,6.029,-0.036,0.009,-0.035,103.0,108.0,99.0,13.3,1505.3,323.9,-0.7,1.9,2470.027,13.33,0.037,284.0